Time,TemperatureF,DewpointF,PressureIn,WindDirection,WindDirectionDegrees,WindSpeedMPH,WindSpeedGustMPH,Humidity,HourlyPrecipIn,Conditions,Clouds,dailyrainin,SoftwareType,DateUTC
2015-06-02 01:11:00,53.0,49.0,-100.00,North,354,2.0,4.0,86,-99.99,,,-99.99,,2015-06-02 05:11:00,
2015-06-02 01:32:00,51.0,48.0,-100.00,NNW,330,2.0,4.0,89,-99.99,,,-99.99,,2015-06-02 05:32:00,
2015-06-02 02:02:00,50.0,48.0,-100.00,WNW,303,1.0,1.0,91,-99.99,,,-99.99,,2015-06-02 06:02:00,
2015-06-02 02:11:00,49.0,47.0,-100.00,West,260,1.0,1.0,92,-99.99,,,-99.99,,2015-06-02 06:11:00,
2015-06-02 02:21:00,49.0,47.0,-100.00,WNW,301,1.0,1.0,93,-99.99,,,-99.99,,2015-06-02 06:21:00,
2015-06-02 02:31:00,49.0,47.0,-100.00,WNW,300,1.0,1.0,93,-99.99,,,-99.99,,2015-06-02 06:31:00,
2015-06-02 02:42:00,49.0,47.0,-100.00,WNW,299,1.0,2.0,93,-99.99,,,-99.99,,2015-06-02 06:42:00,
2015-06-02 02:51:00,48.0,47.0,-100.00,NW,318,2.0,5.0,94,-99.99,,,-99.99,,2015-06-02 06:51:00,
2015-06-02 03:01:00,48.0,47.0,-100.00,NW,318,1.0,3.0,94,-99.99,,,-99.99,,2015-06-02 07:01:00,
2015-06-02 03:11:00,48.0,47.0,-100.00,NW,314,2.0,2.0,94,-99.99,,,-99.99,,2015-06-02 07:11:00,
2015-06-02 04:01:00,48.0,47.0,-100.00,NNW,330,2.0,3.0,95,-99.99,,,-99.99,,2015-06-02 08:01:00,
2015-06-02 04:11:00,48.0,47.0,-100.00,NNW,336,2.0,4.0,95,-99.99,,,-99.99,,2015-06-02 08:11:00,
2015-06-02 04:21:00,48.0,47.0,-100.00,NW,325,2.0,4.0,95,-99.99,,,-99.99,,2015-06-02 08:21:00,
2015-06-02 04:31:00,48.0,47.0,-100.00,NNW,331,2.0,5.0,95,-99.99,,,-99.99,,2015-06-02 08:31:00,
2015-06-02 04:43:00,48.0,47.0,-100.00,NW,326,2.0,4.0,95,-99.99,,,-99.99,,2015-06-02 08:43:00,
2015-06-02 04:51:00,48.0,47.0,-100.00,NW,326,2.0,3.0,95,-99.99,,,-99.99,,2015-06-02 08:51:00,
2015-06-02 05:02:00,47.0,46.0,-100.00,NW,326,2.0,3.0,96,-99.99,,,-99.99,,2015-06-02 09:02:00,
2015-06-02 05:11:00,47.0,46.0,-100.00,NNW,329,1.0,2.0,96,-99.99,,,-99.99,,2015-06-02 09:11:00,
2015-06-02 05:31:00,47.0,46.0,-100.00,North,0,0.0,1.0,96,-99.99,,,-99.99,,2015-06-02 09:31:00,
2015-06-02 05:42:00,47.0,46.0,-100.00,NNW,330,1.0,2.0,96,-99.99,,,-99.99,,2015-06-02 09:42:00,
2015-06-02 05:51:00,47.0,46.0,-100.00,NW,321,1.0,2.0,96,-99.99,,,-99.99,,2015-06-02 09:51:00,
2015-06-02 06:02:00,47.0,46.0,-100.00,NW,317,1.0,3.0,96,-99.99,,,-99.99,,2015-06-02 10:02:00,
2015-06-02 07:12:00,48.0,47.0,-100.00,NNW,329,1.0,2.0,96,-99.99,,,-99.99,,2015-06-02 11:12:00,
2015-06-02 07:31:00,49.0,48.0,-100.00,North,9,1.0,2.0,96,-99.99,,,-99.99,,2015-06-02 11:31:00,
2015-06-02 07:42:00,49.0,48.0,-100.00,NNE,23,2.0,3.0,95,-99.99,,,-99.99,,2015-06-02 11:42:00,
2015-06-02 08:31:00,50.0,48.0,-100.00,North,11,2.0,3.0,94,-99.99,,,-99.99,,2015-06-02 12:31:00,
2015-06-02 09:01:00,50.0,48.0,-100.00,NNW,341,2.0,4.0,93,-99.99,,,-99.99,,2015-06-02 13:01:00,
2015-06-02 09:43:00,51.0,48.0,-100.00,NNW,343,2.0,4.0,92,-99.99,,,-99.99,,2015-06-02 13:43:00,
2015-06-02 10:02:00,51.0,49.0,-100.00,NNW,343,2.0,5.0,91,-99.99,,,-99.99,,2015-06-02 14:02:00,
2015-06-02 10:31:00,51.0,48.0,-100.00,North,9,4.0,6.0,90,-99.99,,,-99.99,,2015-06-02 14:31:00,
2015-06-02 10:43:00,52.0,49.0,-100.00,NE,48,3.0,6.0,90,-99.99,,,-99.99,,2015-06-02 14:43:00,
2015-06-02 10:51:00,52.0,49.0,-100.00,NNE,21,2.0,5.0,89,-99.99,,,-99.99,,2015-06-02 14:51:00,
2015-06-02 11:03:00,52.0,49.0,-100.00,North,0,3.0,6.0,89,-99.99,,,-99.99,,2015-06-02 15:03:00,
2015-06-02 11:12:00,52.0,49.0,-100.00,NNW,342,4.0,6.0,89,-99.99,,,-99.99,,2015-06-02 15:12:00,
2015-06-02 11:21:00,52.0,49.0,-100.00,North,359,3.0,6.0,88,-99.99,,,-99.99,,2015-06-02 15:21:00,
2015-06-02 11:42:00,53.0,49.0,-100.00,NNE,23,3.0,6.0,88,-99.99,,,-99.99,,2015-06-02 15:42:00,
2015-06-02 11:52:00,53.0,50.0,-100.00,NE,52,2.0,6.0,87,-99.99,,,-99.99,,2015-06-02 15:52:00,
2015-06-02 12:02:00,53.0,49.0,-100.00,NE,40,3.0,6.0,86,-99.99,,,-99.99,,2015-06-02 16:02:00,
2015-06-02 12:21:00,53.0,50.0,-100.00,NNE,27,2.0,9.0,86,-99.99,,,-99.99,,2015-06-02 16:21:00,
2015-06-02 12:31:00,53.0,49.0,-100.00,North,357,4.0,7.0,86,-99.99,,,-99.99,,2015-06-02 16:31:00,
2015-06-02 12:43:00,54.0,49.0,-100.00,North,8,4.0,6.0,85,-99.99,,,-99.99,,2015-06-02 16:43:00,
2015-06-02 13:32:00,55.0,50.0,-100.00,NE,45,3.0,6.0,83,-99.99,,,-99.99,,2015-06-02 17:32:00,
2015-06-02 13:43:00,55.0,50.0,-100.00,NE,50,2.0,5.0,83,-99.99,,,-99.99,,2015-06-02 17:43:00,
2015-06-02 13:52:00,56.0,51.0,-100.00,NNE,21,2.0,6.0,83,-99.99,,,-99.99,,2015-06-02 17:52:00,
2015-06-02 14:02:00,56.0,50.0,-100.00,NNE,20,3.0,6.0,82,-99.99,,,-99.99,,2015-06-02 18:02:00,
2015-06-02 14:22:00,56.0,51.0,-100.00,North,3,3.0,4.0,82,-99.99,,,-99.99,,2015-06-02 18:22:00,
2015-06-02 14:32:00,57.0,51.0,-100.00,NNE,24,3.0,7.0,80,-99.99,,,-99.99,,2015-06-02 18:32:00,
2015-06-02 14:43:00,57.0,51.0,-100.00,North,3,4.0,9.0,80,-99.99,,,-99.99,,2015-06-02 18:43:00,
2015-06-02 14:52:00,57.0,51.0,-100.00,NE,54,4.0,9.0,79,-99.99,,,-99.99,,2015-06-02 18:52:00,
2015-06-02 15:04:00,57.0,51.0,-100.00,North,3,4.0,6.0,79,-99.99,,,-99.99,,2015-06-02 19:04:00,
2015-06-02 15:12:00,57.0,51.0,-100.00,North,6,3.0,7.0,79,-99.99,,,-99.99,,2015-06-02 19:12:00,
2015-06-02 15:22:00,57.0,51.0,-100.00,North,357,4.0,7.0,80,-99.99,,,-99.99,,2015-06-02 19:22:00,
2015-06-02 15:32:00,57.0,51.0,-100.00,NE,42,3.0,6.0,79,-99.99,,,-99.99,,2015-06-02 19:32:00,
2015-06-02 15:42:00,59.0,52.0,-100.00,NNE,23,2.0,6.0,80,-99.99,,,-99.99,,2015-06-02 19:42:00,
2015-06-02 15:52:00,59.0,52.0,-100.00,NE,51,4.0,7.0,77,-99.99,,,-99.99,,2015-06-02 19:52:00,
2015-06-02 16:21:00,59.0,52.0,-100.00,NNE,23,2.0,7.0,77,-99.99,,,-99.99,,2015-06-02 20:21:00,
2015-06-02 16:31:00,59.0,52.0,-100.00,NNE,21,3.0,6.0,77,-99.99,,,-99.99,,2015-06-02 20:31:00,
2015-06-02 16:41:00,60.0,52.0,-100.00,NE,42,3.0,6.0,76,-99.99,,,-99.99,,2015-06-02 20:41:00,
2015-06-02 16:51:00,60.0,53.0,-100.00,NNE,30,3.0,6.0,76,-99.99,,,-99.99,,2015-06-02 20:51:00,
2015-06-02 17:01:00,60.0,52.0,-100.00,NNE,25,4.0,6.0,74,-99.99,,,-99.99,,2015-06-02 21:01:00,
2015-06-02 17:42:00,61.0,52.0,-100.00,NE,54,4.0,6.0,72,-99.99,,,-99.99,,2015-06-02 21:42:00,
2015-06-02 17:51:00,62.0,53.0,-100.00,East,80,2.0,3.0,73,-99.99,,,-99.99,,2015-06-02 21:51:00,
2015-06-02 18:02:00,62.0,53.0,-100.00,NE,48,2.0,7.0,71,-99.99,,,-99.99,,2015-06-02 22:02:00,
2015-06-02 18:21:00,63.0,53.0,-100.00,East,88,3.0,5.0,71,-99.99,,,-99.99,,2015-06-02 22:21:00,
2015-06-02 18:41:00,63.0,53.0,-100.00,East,101,3.0,4.0,70,-99.99,,,-99.99,,2015-06-02 22:41:00,
2015-06-02 18:51:00,63.0,53.0,-100.00,ENE,69,2.0,5.0,71,-99.99,,,-99.99,,2015-06-02 22:51:00,
2015-06-02 19:01:00,62.0,53.0,-100.00,NE,48,3.0,4.0,71,-99.99,,,-99.99,,2015-06-02 23:01:00,
2015-06-02 19:11:00,62.0,53.0,-100.00,NE,46,2.0,5.0,71,-99.99,,,-99.99,,2015-06-02 23:11:00,
2015-06-02 19:31:00,62.0,53.0,-100.00,East,95,1.0,4.0,71,-99.99,,,-99.99,,2015-06-02 23:31:00,
2015-06-02 19:42:00,62.0,53.0,-100.00,NE,44,2.0,4.0,72,-99.99,,,-99.99,,2015-06-02 23:42:00,
2015-06-02 19:51:00,62.0,53.0,-100.00,East,84,1.0,3.0,73,-99.99,,,-99.99,,2015-06-02 23:51:00,
2015-06-02 20:03:00,62.0,53.0,-100.00,NE,56,1.0,1.0,73,-99.99,,,-99.99,,2015-06-03 00:03:00,